West Plains, MO

10:32 AM CST on December 11, 2017 (GMT -0600)
West Plains Municipal

Weather History for KUNO - April, 2013

Change the Weather History Date:

Tuesday, April 2, 2013

  Actual Average Record
Temperature  
Mean Temperature 38 °F 53 °F  
Max Temperature 43 °F 66 °F 87 °F (2012)
Min Temperature 32 °F 41 °F 22 °F (1992)
Degree Days  
Heating Degree Days 27 12  
Month to date heating degree days 42 24  
Since 1 July heating degree days 4088 4034  
Cooling Degree Days 0 0  
Month to date cooling degree days 0 0  
Year to date cooling degree days 0 4  
Moisture  
Dew Point 24 °F    
Average Humidity 57    
Maximum Humidity 70    
Minimum Humidity 43    
Precipitation  
Precipitation 0.05 in 0.14 in 1.20 in (2010)
Month to date precipitation 0.05 0.30  
Year to date precipitation 11.12 10.15  
Sea Level Pressure  
Sea Level Pressure 30.27 in    
Wind  
Wind Speed 4 mph (NE)    
Max Wind Speed 14 mph    
Max Gust Speed 17 mph    
Visibility 10 miles    
Events Rain    
T = Trace of Precipitation, MM = Missing Value Source: NWS Daily Summary

Daily Weather History Graph

Daily Weather History Graph

Search for Another Location

Airport or City:

Trip Planner

Search our weather history database for the weather conditions in past years. The results will help you decide how hot, cold, wet, or windy it might be!

Date:

Astronomy

Apr. 02, 2013 Rise Set
Actual Time 6:51 AM CDT 7:31 PM CDT
Civil Twilight 6:25 AM CDT 7:57 PM CDT
Nautical Twilight 5:54 AM CDT 8:28 PM CDT
Astronomical Twilight 5:23 AM CDT 8:59 PM CDT
Moon 1:30 AM CDT (4/2) 11:48 AM CDT (4/2)
Length of Visible Light 13h 31m
Length of Day
12h 39m
Waning Gibbous, 55% of the Moon is Illuminated
Apr 2
Waning Gibbous
Apr 2
Last Quarter
Apr 10
New
Apr 18
First Quarter
Apr 25
Full

Hourly Weather History & Observations

Time (CDT) Temp. Windchill Dew Point Humidity Pressure Visibility Wind Dir Wind Speed Gust Speed Precip Events Conditions
12:53 AM 43.0 °F 36.4 °F 21.9 °F 43% 30.21 in 10.0 mi North 12.7 mph 17.3 mph N/A   Overcast
1:53 AM 41.0 °F 35.2 °F 23.0 °F 49% 30.22 in 10.0 mi NNE 9.2 mph - N/A   Overcast
2:53 AM 39.9 °F 34.5 °F 24.1 °F 53% 30.23 in 10.0 mi NNE 8.1 mph - N/A   Overcast
3:53 AM 39.9 °F 33.4 °F 24.1 °F 53% 30.22 in 10.0 mi NE 10.4 mph - N/A   Overcast
4:53 AM 39.9 °F 33.9 °F 21.9 °F 49% 30.24 in 10.0 mi NNE 9.2 mph - N/A   Overcast
5:53 AM 39.0 °F 33.4 °F 21.9 °F 50% 30.24 in 10.0 mi NE 8.1 mph - N/A   Overcast
6:53 AM 37.9 °F 34.4 °F 24.1 °F 57% 30.27 in 10.0 mi NE 4.6 mph - 0.00 in Rain Light Rain
7:53 AM 37.9 °F 32.7 °F 23.0 °F 55% 30.29 in 10.0 mi ENE 6.9 mph - 0.01 in   Overcast
8:53 AM 37.0 °F 30.4 °F 23.0 °F 57% 30.29 in 10.0 mi NE 9.2 mph - 0.00 in   Overcast
9:53 AM 36.0 °F 31.1 °F 26.1 °F 67% 30.30 in 10.0 mi ESE 5.8 mph - 0.02 in   Overcast
10:53 AM 36.0 °F 32.1 °F 26.1 °F 67% 30.32 in 10.0 mi East 4.6 mph - 0.01 in   Overcast
11:53 AM 36.0 °F 30.3 °F 24.1 °F 62% 30.33 in 10.0 mi East 6.9 mph - 0.01 in   Overcast
12:53 PM 37.0 °F 34.5 °F 24.1 °F 59% 30.32 in 10.0 mi ENE 3.5 mph - 0.00 in   Overcast
1:53 PM 37.9 °F - 24.1 °F 57% 30.30 in - Calm Calm - N/A   Unknown
2:53 PM 37.9 °F - - N/A% 30.28 in - North - - N/A   Unknown
3:53 PM 37.9 °F 34.4 °F 24.1 °F 57% 30.27 in 10.0 mi NNE 4.6 mph - N/A   Overcast
4:53 PM 39.0 °F - 23.0 °F 53% 30.28 in 10.0 mi Calm Calm - N/A   Overcast
5:53 PM 39.0 °F - 24.1 °F 55% 30.27 in 10.0 mi Calm Calm - N/A   Overcast
6:53 PM 39.0 °F - 24.1 °F 55% 30.26 in 10.0 mi Calm Calm - N/A   Overcast
7:53 PM 39.0 °F - 24.1 °F 55% 30.26 in 10.0 mi Calm Calm - N/A   Overcast
8:53 PM 39.0 °F - 25.0 °F 57% 30.27 in 10.0 mi Calm Calm - N/A   Overcast
9:53 PM 39.0 °F - 26.1 °F 60% 30.28 in 10.0 mi Calm Calm - N/A   Overcast
10:53 PM 36.0 °F 33.3 °F 27.0 °F 70% 30.28 in 10.0 mi NNE 3.5 mph - N/A   Clear
11:53 PM 35.1 °F 32.2 °F 27.0 °F 72% 30.28 in 10.0 mi NNE 3.5 mph - N/A   Clear